User: anonymous   Login
Location: Lone Wolf Observatory
(41.0360°N, 89.2260°W)
Time: 04:09:51
(UTC-06:00)
Language:

Cosmos 1378 Rocket - Orbit

View from above orbital plane
View from above orbital plane
View from above satellite
View from above satellite

Ground track
Ground track

The orbit data is extracted from the following two-line orbital elements,

1 13272U 82059B   15031.12623464  .00000461  00000-0  52028-4 0  9775
2 13272 082.5080 234.6638 0020243 103.9733 256.3735 14.84241746763119
Epoch (UTC): 31 January 2015 03:01:46
Eccentricity: 0.0020243
inclination: 82.5080°
perigee height: 602 km
apogee height: 630 km
right ascension of ascending node: 234.6638°
argument of perigee: 103.9733°
revolutions per day: 14.84241746
mean anomaly at epoch: 256.3735°
orbit number at epoch: 76311

The dashed part of the orbit path shows where the satellite is in the earth's shadow,  

DLR